Overview Statistics Trail Chart Weather Telemetry Raw packets
 

This is the latest recevied weather packets stored in our database for station/object OM5AST-13. If no packets are shown the sender has not sent any weather packets the latest 10 day(s).

<< 9 10 11 12 13 14 15 >>
Time Temp. Humidity Pressure Rain* Wind** Luminosity Snow
1788313435 20.56° C 53% - 0 mm - 0 W/m² -
1788312235 21.11° C 52% - 0 mm - 0 W/m² -
1788311035 21.11° C 51% - 0 mm - 0 W/m² -
1788309835 21.67° C 48% - 0 mm - 0 W/m² -
1788308635 21.67° C 47% - 0 mm - 0 W/m² -
1788307435 21.67° C 47% - 0 mm - 0 W/m² -
1788306235 21.11° C 47% - 0 mm - 0 W/m² -
1788305035 21.11° C 48% - 0 mm - 0 W/m² -
1788303835 21.67° C 47% - 0 mm - 0 W/m² -
1788302635 21.11° C 47% - 0 mm - 0 W/m² -
1788301435 21.67° C 46% - 0 mm - 0 W/m² -
1788300235 21.11° C 46% - 0 mm - 0 W/m² -
1788299036 21.11° C 47% - 0 mm - 0 W/m² -
1788297835 21.11° C 47% - 0 mm - 0 W/m² -
1788296635 22.22° C 46% - 0 mm - 0 W/m² -
1788295435 22.78° C 43% - 0 mm - 0 W/m² -
1788294235 22.78° C 46% - 0 mm - 0 W/m² -
1788293035 22.78° C 42% - 0 mm - 0 W/m² -
1788291835 23.33° C 41% - 0 mm - 0 W/m² -
1788290635 23.33° C 41% - 0 mm - 0 W/m² -
1788289436 23.89° C 42% - 0 mm - 0 W/m² -
1788288235 24.44° C 39% - 0 mm - 0 W/m² -
1788287035 25° C 39% - 0 mm - 0 W/m² -
1788285836 25.56° C 38% - 0 mm - 0 W/m² -
1788284635 26.67° C 35% - 0 mm - 0 W/m² -

* Rain latest hour (hover to see other rain measurements)
** Current wind speed in m/s (hover to see current wind gust speed)